This is the latest recevied weather packets stored in our database for station/object WA0GMH-1. If no packets are shown the sender has not sent any weather packets the latest 10 day(s).
| Time | Temp. | Humidity | Pressure | Rain* | Wind** | Luminosity | Snow |
|---|---|---|---|---|---|---|---|
| 1778084030 | 10.56° C | 73% | 1018.2 hPa | 0 mm | - | - | - |
| 1778083629 | 10.56° C | 75% | 1018.2 hPa | 0 mm | - | - | - |
| 1778083226 | 10° C | 76% | 1018.2 hPa | 0 mm | - | - | - |
| 1778082824 | 10° C | 80% | 1018.2 hPa | 0 mm | - | - | - |
| 1778082422 | 10° C | 81% | 1018.1 hPa | 0 mm | - | - | - |
| 1778082020 | 9.44° C | 83% | 1018.3 hPa | 0 mm | - | - | - |
| 1778081617 | 9.44° C | 83% | 1018.1 hPa | 0 mm | - | - | - |
| 1778081215 | 8.89° C | 85% | 1018.5 hPa | 0 mm | - | - | - |
| 1778080812 | 8.89° C | 85% | 1018.3 hPa | 0 mm | - | - | - |
| 1778080411 | 8.33° C | 100% | 1018.5 hPa | 0 mm | - | - | - |
| 1778080008 | 8.33° C | 2% | 1018.3 hPa | 0 mm | - | - | - |
| 1778079606 | 7.78° C | 3% | 1018.3 hPa | 0 mm | - | - | - |
| 1778079204 | 7.78° C | 3% | 1018.4 hPa | 0 mm | - | - | - |
| 1778078802 | 7.78° C | 6% | 1018.4 hPa | 0 mm | - | - | - |
| 1778078399 | 7.22° C | 7% | 1018.2 hPa | 0 mm | - | - | - |
| 1778077997 | 6.67° C | 8% | 1018.4 hPa | 0 mm | - | - | - |
| 1778077595 | 6.67° C | 8% | 1018.5 hPa | 0 mm | - | - | - |
| 1778077193 | 6.11° C | 9% | 1018.4 hPa | 0 mm | - | - | - |
| 1778076790 | 6.11° C | 10% | 1018.4 hPa | 0 mm | - | - | - |
| 1778076388 | 5.56° C | 11% | 1018.2 hPa | 0 mm | - | - | - |
| 1778075986 | 5° C | 12% | 1018.2 hPa | 0 mm | - | - | - |
| 1778075584 | 5° C | 13% | 1018.3 hPa | 0 mm | - | - | - |
| 1778075181 | 4.44° C | 13% | 1018.6 hPa | 0 mm | - | - | - |
| 1778074779 | 4.44° C | 13% | 1018.5 hPa | 0 mm | - | - | - |
| 1778074377 | 3.89° C | 13% | 1018.5 hPa | 0 mm | - | - | - |
* Rain since midnight (hover to see other rain measurements)
** Current wind speed in m/s (hover to see current wind gust speed)